Showing default

HULIANWANG DIGUI-24, 63691

Orbit data source: Space-Track

HULIANWANG DIGUI-24, 63691 is a payload satellite owned by Zhongguo Xingwang (CN) in LEO that was launched on Mon, 28 Apr 2025 UTC via a CHANG ZHENG 5B/YZ-2 launch vehicle from the Wenchang Satellite Launch Center (WSC). Payload-class satellites include a variety of spacecraft equipped with specific instruments for various scientific and technological missions. These include communications satellites like Starlink; space stations such as the ISS; scientific satellites like the Hubble; Earth observation satellites from companies like Planet Labs, Umbra, and HawkEye 360; GPS; miniature CubeSats for education and research; and military/defense satellites.

Loading next visibility...
Identifier
63691, 2025-086E
Orbit
LEO
Country
Flag of CNCN / PRC
Related business
Manufacturer
CAST?
Mission
Operational Civil Communications
Bus & Motor
XINGWANG CL, Unknown motor
Mass
~800 kg wet, ~800 kg dry
Launch date (UTC)
2025-04-28 (1 year ago)
Launch vehicle
CHANG ZHENG 5B/YZ-2
Launch site
Wenchang Satellite Launch Center (WSC)
Object type
Payload
Rocket body
Debris
Shape & HBR
Box + 2 Pan, 5.0 m
Radar Cross Section
5.935 m², Large (>1 m²)

Expand to show TLE details & history
Last TLE update: 11 hours ago

TLE from 11 hours ago
0 HULIANWANG DIGUI-24
1 63691U 25086E   26171.38666279  .00000035  00000-0  47780-4 0  9998
2 63691  86.5093 312.1932 0001396 108.7146 251.4140 13.24409954 55283
Epoch: 2026-06-20T09:16Z
TLE epoch observation values (Epoch: 2026-06-20T09:16:47.665Z)
Latitude
0.00004°
Longitude
-95.60743°
Altitude
1,171.153 km
Speed
7.268 km/s
True Right ascension
20h 48m 46s
True Declination
0° 00' 00"
Sunlit
Object was in full shadow at epoch
Visualization orbit readout
Latitude
Unknown
Longitude
Unknown
Altitude
Unknown
Speed
Unknown
Apparent Right ascension
Unknown
Apparent Declination
Unknown
Sunlit
N/A
Visualization observer readout
Local Sidereal Time
07:18:09
Azimuth
Unknown
Elevation
Unknown
Doppler factor
Unknown
Orbital elements
Apogee altitude
1,166.095 km
Perigee altitude
1,163.989 km
Semi-major axis
7,543.179 km
Eccentricity
0.00014
Inclination
86.5093°
RAAN
312.1932°
Arg. of periapsis
108.7146°
True anomaly
251.39884°
Mean anomaly
251.414°
Eccentric anomaly
251.40642°
Mean motion
3.31292 °/min
Orbital period
108.67 mins
BSTAR
0.00004778
Loading maneuver chart data...
Computing Atmospheric mass density...
Loading historical data...
Loading historical data...
Loading historical data...
Loading historical data...
Loading historical data...
Loading historical data...
Loading historical data...

Documentation

Showing up to 5 results
|